Tracking 17921 objects as of 16-January-2017
HD Live streaming from Space Station
objects crossing your sky now

COSMOS 2430

Track COSMOS 2430 now!
COSMOS 2430 is classified as:


NORAD ID: 32268
Int'l Code: 2007-049A
Perigee: 301.3 km
Apogee: 40,065.0 km
Inclination: 63.7 °
Period: 717.7 minutes
Semi major axis: 26554 km
RCS: 3.1623 m2 (large)
Launch date: October 23, 2007
Source: Commonwealth of Independent States (former USSR) (CIS)
Launch site: PLESETSK MISSILE AND SPACE COMPLEX (PKMTR)
Your satellite tracking list
Your tracking list is empty





NASA's NSSDC Master Catalog

Two Line Element Set (TLE):
1 32268U 07049A   17015.82223363 -.00001764  00000-0 -14849-4 0  9994
2 32268  63.7457 339.1703 7487291 241.4931  26.3173  2.00634114 67650
Source of the keplerian elements: AFSPC